• In Belgium
  • List of Countries
  • For 7 days
  • Water Temperature
  • Satellite Maps
  • Weather Map
  • Weather Widgets
  • user-avatar
    Login

    Hourly Weather Elbasan

    Today, 22 January, Monday

    Time Temperature Precipitation Wind Pressure Humidity
    00:00 +5°C° 0.3 mm 3 mps 725 mmHg 94%
    01:00 +4°C° 0 mm 3 mps 725 mmHg 90%
    02:00 +4°C° 0.1 mm 4 mps 726 mmHg 88%
    03:00 +3°C° 0.1 mm 4 mps 727 mmHg 86%
    04:00 +3°C° 0.1 mm 4 mps 727 mmHg 85%
    05:00 +2°C° 0 mm 3 mps 728 mmHg 83%
    06:00 +2°C° 0 mm 3 mps 728 mmHg 82%
    07:00 +1°C° 0 mm 3 mps 729 mmHg 80%
    08:00 +2°C° 0 mm 3 mps 729 mmHg 74%
    09:00 +3°C° 0 mm 3 mps 730 mmHg 67%
    10:00 +4°C° 0 mm 3 mps 731 mmHg 61%
    11:00 +5°C° 0 mm 3 mps 731 mmHg 59%
    12:00 +5°C° 0 mm 4 mps 731 mmHg 58%
    13:00 +6°C° 0 mm 4 mps 731 mmHg 56%
    14:00 +5°C° 0 mm 3 mps 731 mmHg 59%
    15:00 +5°C° 0 mm 3 mps 732 mmHg 62%
    16:00 +6°C° 0 mm 2 mps 732 mmHg 65%
    17:00 +5°C° 0 mm 2 mps 732 mmHg 67%
    18:00 +4°C° 0 mm 2 mps 733 mmHg 69%
    19:00 +3°C° 0 mm 2 mps 733 mmHg 72%
    20:00 +3°C° 0 mm 2 mps 734 mmHg 71%
    21:00 +3°C° 0 mm 1 mps 734 mmHg 71%
    22:00 +3°C° 0 mm 1 mps 734 mmHg 71%
    23:00 +4°C° 0 mm 1 mps 734 mmHg 70%

    Tomorrow, 23 January, Tuesday

    Time Temperature Precipitation Wind Pressure Humidity
    00:00 +4°C° 0 mm 1 mps 734 mmHg 70%
    01:00 +4°C° 0 mm 1 mps 735 mmHg 70%
    02:00 +4°C° 0 mm 1 mps 735 mmHg 69%
    03:00 +4°C° 0 mm 1 mps 735 mmHg 69%
    04:00 +4°C° 0 mm 1 mps 735 mmHg 68%
    05:00 +4°C° 0 mm 1 mps 735 mmHg 67%
    06:00 +4°C° 0 mm 1 mps 735 mmHg 66%
    07:00 +5°C° 0 mm 1 mps 735 mmHg 65%
    08:00 +6°C° 0 mm 1 mps 736 mmHg 61%
    09:00 +7°C° 0 mm 1 mps 736 mmHg 57%
    10:00 +9°C° 0 mm 1 mps 737 mmHg 54%
    11:00 +9°C° 0 mm 1 mps 737 mmHg 52%
    12:00 +9°C° 0 mm 2 mps 737 mmHg 51%
    13:00 +10°C° 0 mm 2 mps 737 mmHg 50%
    14:00 +9°C° 0 mm 2 mps 737 mmHg 54%
    15:00 +8°C° 0 mm 2 mps 737 mmHg 57%
    16:00 +8°C° 0 mm 2 mps 738 mmHg 61%
    17:00 +7°C° 0 mm 2 mps 738 mmHg 64%
    18:00 +6°C° 0 mm 2 mps 738 mmHg 66%
    19:00 +5°C° 0 mm 2 mps 739 mmHg 68%
    20:00 +5°C° 0 mm 2 mps 740 mmHg 68%
    21:00 +4°C° 0 mm 2 mps 740 mmHg 68%
    22:00 +4°C° 0 mm 2 mps 741 mmHg 69%
    23:00 +3°C° 0 mm 3 mps 741 mmHg 70%

    Day after tomorrow, 24 January, Wednesday

    Time Temperature Precipitation Wind Pressure Humidity
    00:00 +2°C° 0 mm 3 mps 741 mmHg 71%
    01:00 +2°C° 0 mm 3 mps 742 mmHg 72%
    02:00 +2°C° 0 mm 3 mps 742 mmHg 72%
    03:00 +2°C° 0 mm 3 mps 742 mmHg 73%
    04:00 +1°C° 0 mm 3 mps 742 mmHg 74%
    05:00 +1°C° 0 mm 3 mps 743 mmHg 74%
    06:00 +1°C° 0 mm 3 mps 743 mmHg 73%
    07:00 +1°C° 0 mm 3 mps 744 mmHg 73%
    08:00 +3°C° 0 mm 3 mps 744 mmHg 68%
    09:00 +4°C° 0 mm 3 mps 744 mmHg 63%
    10:00 +7°C° 0 mm 2 mps 745 mmHg 57%
    11:00 +7°C° 0 mm 2 mps 745 mmHg 54%
    12:00 +8°C° 0 mm 2 mps 744 mmHg 51%
    13:00 +9°C° 0 mm 2 mps 744 mmHg 48%
    14:00 +9°C° 0 mm 2 mps 744 mmHg 52%
    15:00 +8°C° 0 mm 2 mps 744 mmHg 55%
    16:00 +8°C° 0 mm 2 mps 744 mmHg 59%
    17:00 +6°C° 0 mm 2 mps 744 mmHg 61%
    18:00 +5°C° 0 mm 2 mps 745 mmHg 64%
    19:00 +4°C° 0 mm 2 mps 745 mmHg 66%
    20:00 +4°C° 0 mm 2 mps 745 mmHg 67%
    21:00 +3°C° 0 mm 2 mps 745 mmHg 68%
    22:00 +3°C° 0 mm 2 mps 745 mmHg 68%
    23:00 +3°C° 0 mm 2 mps 745 mmHg 68%

    25 January, Thursday

    Time Temperature Precipitation Wind Pressure Humidity
    00:00 +3°C° 0 mm 2 mps 745 mmHg 68%
    01:00 +3°C° 0 mm 2 mps 745 mmHg 67%
    02:00 +3°C° 0 mm 2 mps 745 mmHg 66%
    03:00 +3°C° 0 mm 2 mps 745 mmHg 65%
    04:00 +3°C° 0 mm 2 mps 745 mmHg 64%
    05:00 +3°C° 0 mm 2 mps 745 mmHg 63%
    06:00 +3°C° 0 mm 2 mps 745 mmHg 61%
    07:00 +3°C° 0 mm 2 mps 745 mmHg 60%
    08:00 +6°C° 0 mm 1 mps 745 mmHg 54%
    09:00 +7°C° 0 mm 1 mps 745 mmHg 48%
    10:00 +9°C° 0 mm 1 mps 745 mmHg 42%
    11:00 +10°C° 0 mm 1 mps 744 mmHg 41%
    12:00 +11°C° 0 mm 1 mps 744 mmHg 39%
    13:00 +11°C° 0 mm 1 mps 743 mmHg 38%
    14:00 +11°C° 0 mm 1 mps 743 mmHg 43%
    15:00 +10°C° 0 mm 1 mps 743 mmHg 48%
    16:00 +9°C° 0 mm 1 mps 742 mmHg 54%
    17:00 +8°C° 0 mm 1 mps 742 mmHg 56%
    18:00 +7°C° 0 mm 1 mps 742 mmHg 58%
    19:00 +6°C° 0 mm 1 mps 742 mmHg 59%
    20:00 +6°C° 0 mm 1 mps 742 mmHg 59%
    21:00 +6°C° 0 mm 1 mps 742 mmHg 59%
    22:00 +6°C° 0 mm 1 mps 742 mmHg 58%
    23:00 +6°C° 0 mm 1 mps 742 mmHg 58%

    26 January, Friday

    Time Temperature Precipitation Wind Pressure Humidity
    00:00 +5°C° 0 mm 1 mps 742 mmHg 57%
    01:00 +5°C° 0 mm 1 mps 742 mmHg 56%
    02:00 +5°C° 0 mm 1 mps 742 mmHg 56%
    03:00 +5°C° 0 mm 1 mps 741 mmHg 55%
    04:00 +5°C° 0 mm 1 mps 741 mmHg 54%
    05:00 +5°C° 0 mm 1 mps 741 mmHg 54%
    06:00 +5°C° 0 mm 1 mps 741 mmHg 53%
    07:00 +5°C° 0 mm 1 mps 741 mmHg 53%
    08:00 +7°C° 0 mm 1 mps 741 mmHg 50%
    09:00 +9°C° 0 mm 1 mps 741 mmHg 47%
    10:00 +10°C° 0 mm 1 mps 741 mmHg 44%
    11:00 +11°C° 0 mm 1 mps 741 mmHg 45%
    12:00 +12°C° 0 mm 1 mps 740 mmHg 46%
    13:00 +12°C° 0 mm 1 mps 740 mmHg 47%
    14:00 +12°C° 0 mm 1 mps 740 mmHg 53%
    15:00 +11°C° 0 mm 1 mps 740 mmHg 58%
    16:00 +10°C° 0 mm 1 mps 740 mmHg 64%
    17:00 +9°C° 0 mm 1 mps 740 mmHg 67%
    18:00 +8°C° 0 mm 1 mps 740 mmHg 70%
    19:00 +7°C° 0 mm 1 mps 741 mmHg 74%
    20:00 +7°C° 0 mm 1 mps 741 mmHg 73%
    21:00 +7°C° 0 mm 1 mps 741 mmHg 73%
    22:00 +7°C° 0 mm 1 mps 741 mmHg 72%
    23:00 +6°C° 0 mm 1 mps 741 mmHg 72%

    27 January, Saturday

    Time Temperature Precipitation Wind Pressure Humidity
    00:00 +6°C° 0 mm 1 mps 741 mmHg 72%
    01:00 +6°C° 0 mm 1 mps 741 mmHg 72%
    02:00 +6°C° 0 mm 1 mps 741 mmHg 72%
    03:00 +6°C° 0 mm 1 mps 741 mmHg 71%
    04:00 +5°C° 0 mm 2 mps 741 mmHg 71%
    05:00 +5°C° 0 mm 2 mps 741 mmHg 71%
    06:00 +5°C° 0 mm 2 mps 741 mmHg 71%
    07:00 +5°C° 0 mm 2 mps 742 mmHg 70%
    08:00 +8°C° 0 mm 1 mps 742 mmHg 65%
    09:00 +9°C° 0 mm 1 mps 742 mmHg 60%
    10:00 +11°C° 0 mm 1 mps 742 mmHg 54%
    11:00 +12°C° 0 mm 1 mps 742 mmHg 53%
    12:00 +12°C° 0 mm 1 mps 742 mmHg 51%
    13:00 +13°C° 0 mm 1 mps 742 mmHg 50%
    14:00 +13°C° 0 mm 1 mps 742 mmHg 54%
    15:00 +12°C° 0 mm 1 mps 742 mmHg 59%
    16:00 +11°C° 0 mm 1 mps 742 mmHg 64%
    17:00 +10°C° 0 mm 1 mps 743 mmHg 67%
    18:00 +9°C° 0 mm 1 mps 743 mmHg 70%
    19:00 +8°C° 0 mm 1 mps 743 mmHg 73%
    20:00 +8°C° 0 mm 1 mps 744 mmHg 72%
    21:00 +8°C° 0 mm 1 mps 744 mmHg 72%
    22:00 +7°C° 0 mm 1 mps 744 mmHg 72%
    23:00 +7°C° 0 mm 1 mps 745 mmHg 72%
    Show more